Regional Weather Roundup
Issued by NWS

Home | Current Version | Previous Version | Text Only | Print | Product List | Glossary Off
Versions: 1 2 3 4 5 6 7 8 9 10 11 12 13 14 15 16 17 18 19 20 21 22 23 24 25 26 27 28 29 30 31 32 33 34 35 36 37 38 39 40 41 42 43 44 45 46 47 48 49 50

338
ASUS43 KLOT 252008
RWRIL

ILLINOIS REGIONAL WEATHER ROUNDUP
NATIONAL WEATHER SERVICE CHICAGO/ROMEOVILLE IL
300 PM CDT SUN SEP 25 2016

NOTE: "FAIR" INDICATES FEW OR NO CLOUDS BELOW 12,000 FEET WITH NO
SIGNIFICANT WEATHER AND/OR OBSTRUCTIONS TO VISIBILITY.

* THESE STATIONS ARE NOT UNDER NWS QUALITY CONTROL. THEY ALSO MAY NOT
  REPORT WEATHER SUCH AS PRECIPITATION OR FOG.

ILZ001-002-007-009-015-016-024-252100-
NORTHWEST ILLINOIS

CITY           SKY/WX    TMP DP  RH WIND       PRES   REMARKS
MOLINE         PTSUNNY   84  66  54 W18G24    29.93F HX  86
STERLING*      CLOUDY    82  72  71 W14       29.92F HX  87
SAVANNA*       MOSUNNY   83  68  59 SW9       29.91F HX  87
$$

ILZ003-004-008-010-011-017-018-252100-
NORTH CENTRAL ILLINOIS

CITY           SKY/WX    TMP DP  RH WIND       PRES   REMARKS
ROCKFORD       PTSUNNY   82  69  64 S13       29.91F HX  85
FREEPORT*      MOSUNNY   81  70  69 SW12      29.93F HX  84
ROCHELLE*      PTSUNNY   84  70  62 SW10      29.92F HX  88
DE KALB*       CLOUDY    85  67  55 S18G28    29.93F HX  87
$$

ILZ005-006-012>014-019>023-252100-
NORTHEAST ILLINOIS

CITY           SKY/WX    TMP DP  RH WIND       PRES   REMARKS
CHICAGO-OHARE  PTSUNNY   85  67  54 S15       29.94F HX  87
CHICAGO-MIDWAY PTSUNNY   85  65  51 S10       29.94F THUNDER HX  86
AURORA         MOSUNNY   90  66  45 S12G21    29.93F HX  92
LANSING*       PTSUNNY   85  69  57 S9        29.96F HX  89
JOLIET*        MOSUNNY   83  74  74 E3        29.94F HX  89
WAUKEGAN       SUNNY     75  64  68 SE13      29.93F
DUPAGE AIRPORT MOSUNNY   85  68  56 S15       29.93F HX  88
KANKAKEE*      LGT RAIN  79  67  67 W12G23    29.99R HX  81
WHEELING       MOSUNNY   85  66  53 S15       29.95F HX  87
MORRIS*        MOSUNNY   91  64  41 S8        29.92F HX  92
ROMEOVILLE*    CLOUDY    78  74  85 E5        29.95F HX  81
NORTHERLY ISL    N/A     75  66  73 S5          N/A
$$

LMZ740>746-252100-
SOUTHERN LAKE MICHIGAN

STATION/POSITION SKY/WX   TEMP    WIND        PRES    VSBY  WAVE
                          AIR SEA DIR/SP/G                  HT/PER
                          (F)     (DEG/KT/KT) (MB)    (MI)  (FT/S)
SOUTHERN BUOY              72 72  130/ 16/ 19 1014.3F         3/ 5
WILMETTE HARBOR            69 65  150/ 10/ 14   N/A           2/ 4
HARRISON CRIB              74     130/ 15/ 16   N/A
BURNHAM HARBOR             74     100/  2/  9   N/A
CALUMET HARBOR             82     150/ 10/ 12 1015.0F
BURNS HARBOR               82     180/  8/ 16 1016.3F
MICHIGAN CITY              81     140/  7/ 10   N/A
MICHIGAN CITY 6N           75 71  140/  6/  8   N/A           1
ST. JOSEPH                 75 69  150/  6/  8 1015.5F         1
$$

ILZ025>027-034>036-040-047-049-050-058-095>099-252100-
WEST-CENTRAL ILLINOIS

CITY           SKY/WX    TMP DP  RH WIND       PRES   REMARKS
QUINCY         MOSUNNY   84  66  54 W13G21    30.01F HX  86
GALESBURG*     MOSUNNY  N/A N/A N/A SW13G20     N/A
MACOMB*        PTSUNNY   87  64  45 W18       30.00F HX  88
JACKSONVILLE*  CLOUDY    87  67  51 W9        29.99F HX  89
PITTSFIELD*    MOSUNNY   86  67  52 SW10G17   30.02F HX  89
$$

ILZ028>032-037-038-041>044-048-051>054-059>061-252100-
CENTRAL ILLINOIS

CITY           SKY/WX    TMP DP  RH WIND       PRES   REMARKS
PONTIAC        RAIN      76  70  80 S16G25    29.98S
BLOOMINGTON    CLOUDY    77  71  82 SW3       30.00F
DECATUR        CLOUDY    89  64  43 SW14G22   29.98F HX  90
PEORIA         PTSUNNY   86  70  58 SW12      29.96F HX  90
LACON*         MOSUNNY   87  68  53 S12G18    29.93F HX  91
LINCOLN*       MOSUNNY   86  72  62 W6        29.97F HX  92
SPRINGFIELD    CLOUDY    89  63  41 SW13G22   29.98F HX  90
TAYLORVILLE    PTSUNNY   88  65  47 W14       29.99F HX  90
$$

ILZ033-039-045-046-055>057-062-063-252100-
EAST-CENTRAL ILLINOIS

CITY           SKY/WX    TMP DP  RH WIND       PRES   REMARKS
CHAMPAIGN      TSTM      73  65  75 NW17G38   30.01S
RANTOUL*       PTSUNNY   89  66  45 SW9G17    29.98F HX  92
MATTOON        PTSUNNY   86  67  52 S6        29.99F HX  89
PARIS*         PTSUNNY   87  68  53 S6        30.01F HX  91
$$

ILZ079-100>102-252100-
SOUTHWEST ILLINOIS

CITY           SKY/WX    TMP DP  RH WIND       PRES   REMARKS
ALTON          PTSUNNY   86  68  54 SW9       30.00F HX  89
BELLEVILLE     CLOUDY    90  69  49 W12       29.99F HX  95
CAHOKIA*       LGT RAIN  88  66  48 W7        29.99F HX  90
SPARTA*        SUNNY     87  70  56 S5        30.02F HX  92
$$

ILZ064>066-069>071-074>076-080>082-084>086-088>090-092>094-252100-
SOUTH-CENTRAL ILLINOIS

CITY           SKY/WX    TMP DP  RH WIND       PRES   REMARKS
CARBONDALE     SUNNY     88  70  55 SW9       30.02F HX  93
CAIRO*         MOSUNNY   90  66  45 CALM      30.01F HX  93
EFFINGHAM*     MOSUNNY   87  69  55 S8        30.02F HX  90
MARION         MOSUNNY   90  68  48 SW9       30.03F HX  93
MT. VERNON     MOSUNNY   90  70  51 SW8       30.02F HX  95
CENTRALIA*     MOSUNNY   91  69  49 SW7       30.00F HX  96
SALEM*         SUNNY     91  66  44 SW10      30.01F HX  93
METROPOLIS*    SUNNY     92  68  44 CALM      30.02F HX  96
$$

ILZ067-068-072-073-078-083-087-091-252100-
SOUTHEAST ILLINOIS

CITY           SKY/WX    TMP DP  RH WIND       PRES   REMARKS
LAWRENCEVILLE  SUNNY     90  66  45 W9        30.02F HX  92
FLORA*         SUNNY     91  70  50 SW9       30.02F HX  95
FAIRFIELD*     MOSUNNY   90  67  47 SW5       30.01F HX  93
HARRISBURG*    SUNNY     90  69  49 SW7       30.03F HX  94
ROBINSON*      MOSUNNY   88  69  53 S5        30.02F HX  92
CARMI*         SUNNY     91  69  48 S3        30.01F HX  95
$$

ABBREVIATIONS USED IN REMARKS
   TC - TEMPERATURE IN CELSIUS
  WCI - WIND CHILL INDEX
   HX - HEAT INDEX
  VSB - VISIBILITY
$$





USA.gov is the U.S. government's official web portal to all federal, state and local government web resources and services.